Content
SEND FEEDBACK

Daily
Averages
Monthly
Summary
United States of America

WRIGHTSVILLE BEACH, NORTH CAROLINA


Home > North America > United States > North Carolina
Elevation: 25 feet     Latitude: 34 16N     Longitude: 077 54W

WEATHER
 
SELECT A DAY
Number of Records: 212,284;   Date Range: 1/1/95 - 10/20/14
 
SHARE

PRINT THIS DATA

[ ← Previous Day ]
WEATHER ALMANAC - FEBRUARY 14, 2013
[ Next Day → ]
[ °C ]   °F
Weather ElementAverageHighLow
Temperature46.9 °F53.1 °F (3:53 pm)41 °F (6:53 am)
Dewpoint37.6 °F45 °F (1:53 am)35.1 °F (4:53 am)
Humidity71.4 %89 % (9:53 pm)52 % (3:53 pm)
Barometer30.01 in30.09 in (8:53 pm)29.85 in (1:53 am)
Wind Speed3.6 mph9.2 mph (1:53 am)
Weather ElementAverage
Visibility10 mi
Wind DirectionSSE (145.2 °)

Weather ElementTotal
Precipitation---
Heating Degree Days18 (Base 65)
Averaged from 23 records on February 14, 2013
WEATHER CONDITIONS BREAKOUT
WIND DIRECTION BREAKOUT
WEATHER BY HOUR - FEBRUARY 14, 2013
[ °C ]   °F
Local TimeTemperatureDewpointHumidityBarometerVisibilityWind DirectionWind SpeedGust SpeedPrecipitationEventsConditions
1:53 AM50.0 °F45.0 °F83 %29.85 in10.0 miWNW (300°)9.2 mphClear
2:53 AM48.0 °F43.0 °F83 %29.88 in10.0 miNW (310°)8.1 mphPartly Cloudy
3:53 AM46.9 °F37.0 °F68 %29.91 in10.0 miNNW (340°)9.2 mphClear
4:53 AM44.1 °F35.1 °F71 %29.96 in10.0 miNorth (350°)3.5 mphClear
5:53 AM42.1 °F36.0 °F79 %29.96 in10.0 miNNW (340°)3.5 mphClear
6:53 AM41.0 °F36.0 °F82 %29.98 in10.0 miCalmClear
7:53 AM43.0 °F37.0 °F80 %30.02 in10.0 miNNW (330°)4.6 mphClear
8:53 AM46.9 °F37.0 °F68 %30.04 in10.0 miNorth (360°)6.9 mphClear
9:53 AM48.0 °F36.0 °F63 %30.05 in10.0 miNNE (20°)8.1 mphClear
10:53 AM50.0 °F36.0 °F59 %30.04 in10.0 miNE (40°)8.1 mphClear
11:53 AM51.1 °F36.0 °F56 %30.05 in10.0 miNNE (30°)4.6 mphClear
12:53 PM51.1 °F36.0 °F56 %30.04 in10.0 miCalmClear
1:53 PM51.1 °F35.1 °F54 %30.02 in10.0 miNorth (360°)3.5 mphClear
2:53 PM52.0 °F36.0 °F54 %30.02 in10.0 miCalmClear
3:53 PM53.1 °F36.0 °F52 %30.00 in10.0 miCalmClear
4:53 PM50.0 °F37.9 °F63 %30.04 in10.0 miESE (110°)5.8 mphClear
5:53 PM48.9 °F37.9 °F66 %30.04 in10.0 miSE (130°)4.6 mphClear
6:53 PM46.0 °F39.0 °F76 %30.06 in10.0 miCalmClear
7:53 PM45.0 °F39.0 °F80 %30.05 in10.0 miCalmClear
8:53 PM44.1 °F39.0 °F82 %30.09 in10.0 miCalmClear
9:53 PM42.1 °F39.0 °F89 %30.08 in10.0 miCalmClear
10:53 PM42.1 °F39.0 °F89 %30.06 in10.0 miNW (320°)3.5 mphClear
11:53 PM41.0 °F37.9 °F89 %30.07 in10.0 miCalmClear
Hourly data recorded from KILM, located miles away from Wrightsville Beach, North Carolina







STORIES FROM OUR PARTNERS